Location: Unspecified
(0.0000°N, 0.0000°E)
Time: 18:55:27
(UTC+00:00)

Courier 1B Rocket - Pass Details

Date: 23 November 2019
Orbit: 920 x 1202 km, 28.2° (Epoch: 08 December)

Event Time Altitude Azimuth Distance (km) Brightness Sun altitude
Rises 17:58:49 0° 327° (NNW) 3,949 8.3 -2.9°
Reaches altitude 10° 18:02:56 10° 348° (NNW) 3,041 7.5 -3.9°
Maximum altitude 18:07:15 16° 23° (NNE) 2,661 6.9 -4.9°
Drops below altitude 10° 18:11:39 10° 58° (ENE) 3,113 7.0 -5.9°
Enters shadow 18:13:03 - 66° (ENE) 3,395 7.1 -6.2°
